QPF
0.00 0.00 0.00 0.01 0.01 0.01 0.01 0.00 0.01 0.00 0.01 0.00 0.00 0.00 0.00 0.00 0.00 0.00 0.00 0.00 0.00 0.00 0.00 0.00 0.00 0.00 0.00 0.00 0.00 0.00 0.00 0.00 0.00 0.00 0.00 0.00 0.00 0.00 0.00 0.00 0.00 0.00 0.00 0.00
0.00 0.00 0.01 0.02 0.02 0.01 0.00 0.00 0.00 0.00 0.00 0.00 0.00 0.00 0.00 0.00 0.00 0.00 0.00 0.00 0.00 0.00 0.00 0.00 0.00 0.00 0.00 0.00 0.00 0.00 0.00 0.00 0.00 0.00 0.00 0.00 0.00 0.00 0.00 0.00 0.00 0.00 0.00 0.00
0.00 0.00 0.01 0.02 0.00 0.00 0.00 0.00 0.00 0.00 0.00 0.00 0.00 0.00 0.00 0.00 0.00 0.00 0.00 0.00 0.00 0.00 0.00 0.00 0.00 0.00 0.00 0.00 0.00 0.00 0.00 0.00 0.00 0.00 0.00 0.00 0.00 0.00 0.00 0.00 0.00 0.00 0.00 0.00
0.01 0.01 0.02 0.00 0.00 0.00 0.00 0.00 0.00 0.00 0.00 0.00 0.00 0.00 0.00 0.00 0.00 0.00 0.00 0.00 0.00 0.00 0.00 0.00 0.00 0.00 0.00 0.00 0.00 0.00 0.00 0.00 0.00 0.00 0.00 0.00 0.00 0.00 0.00 0.00 0.00 0.00 0.00 0.00
0.01 0.01 0.01 0.00 0.00 0.00 0.00 0.00 0.00 0.00 0.00 0.00 0.00 0.00 0.00 0.00 0.00 0.00 0.00 0.00 0.00 0.00 0.00 0.00 0.00 0.00 0.00 0.00 0.00 0.00 0.00 0.00 0.00 0.00 0.00 0.00 0.00 0.00 0.00 0.00 0.00 0.00 0.00 0.00
0.01 0.02 0.01 0.00 0.00 0.00 0.00 0.01 0.00 0.00 0.00 0.00 0.00 0.00 0.00 0.00 0.00 0.00 0.00 0.00 0.00 0.00 0.00 0.00 0.00 0.00 0.00 0.00 0.00 0.00 0.00 0.00 0.00 0.00 0.00 0.00 0.00 0.00 0.00 0.00 0.00 0.00 0.00 0.00
0.02 0.03 0.01 0.00 0.00 0.00 0.01 0.00 0.00 0.00 0.00 0.00 0.00 0.00 0.00 0.00 0.00 0.00 0.00 0.00 0.00 0.00 0.00 0.00 0.00 0.00 0.00 0.00 0.00 0.00 0.00 0.00 0.00 0.00 0.00 0.01 0.01 0.01 0.01 0.00 0.00 0.00 0.00 0.00
0.05 0.05 0.02 0.00 0.00 0.01 0.00 0.00 0.00 0.00 0.00 0.00 0.00 0.00 0.00 0.00 0.00 0.00 0.00 0.00 0.00 0.00 0.00 0.00 0.00 0.00 0.00 0.00 0.00 0.00 0.00 0.00 0.00 0.00 0.00 0.00 0.02 0.02 0.01 0.01 0.00 0.00 0.00 0.00
0.03 0.01 0.00 0.00 0.00 0.00 0.00 0.00 0.00 0.00 0.00 0.00 0.00 0.00 0.00 0.00 0.00 0.00 0.00 0.00 0.00 0.00 0.00 0.00 0.00 0.00 0.00 0.00 0.00 0.00 0.00 0.00 0.00 0.00 0.00 0.00 0.00 0.01 0.01 0.02 0.01 0.00 0.00 0.00
0.03 0.00 0.00 0.00 0.00 0.00 0.00 0.00 0.00 0.00 0.00 0.00 0.00 0.00 0.00 0.00 0.00 0.00 0.00 0.00 0.00 0.00 0.00 0.00 0.00 0.00 0.00 0.00 0.00 0.00 0.00 0.00 0.00 0.00 0.00 0.00 0.00 0.00 0.00 0.01 0.00 0.00 0.00 0.00
0.00 0.00 0.00 0.00 0.00 0.00 0.00 0.00 0.00 0.00 0.00 0.00 0.00 0.00 0.00 0.00 0.00 0.00 0.00 0.00 0.00 0.00 0.00 0.00 0.00 0.00 0.00 0.00 0.00 0.00 0.00 0.00 0.00 0.00 0.00 0.00 0.00 0.00 0.00 0.01 0.02 0.02 0.01 0.01
0.01 0.00 0.01 0.00 0.00 0.00 0.00 0.00 0.00 0.00 0.00 0.00 0.00 0.00 0.00 0.00 0.00 0.00 0.00 0.00 0.00 0.00 0.00 0.00 0.00 0.00 0.00 0.00 0.00 0.00 0.00 0.00 0.00 0.00 0.00 0.00 0.00 0.00 0.00 0.00 0.01 0.01 0.01 0.01
0.00 0.01 0.01 0.00 0.00 0.00 0.00 0.00 0.00 0.00 0.00 0.00 0.00 0.00 0.00 0.00 0.00 0.00 0.00 0.00 0.00 0.00 0.00 0.00 0.00 0.00 0.00 0.00 0.00 0.00 0.00 0.00 0.00 0.00 0.00 0.00 0.00 0.00 0.00 0.00 0.00 0.00 0.00 0.00
0.00 0.00 0.00 0.00 0.00 0.00 0.00 0.00 0.00 0.00 0.00 0.00 0.00 0.00 0.00 0.00 0.00 0.00 0.00 0.00 0.00 0.00 0.00 0.00 0.00 0.00 0.00 0.00 0.00 0.00 0.00 0.00 0.00 0.00 0.00 0.00 0.00 0.00 0.00 0.00 0.01 0.01 0.01 0.00
0.00 0.00 0.01 0.00 0.00 0.00 0.00 0.00 0.00 0.00 0.00 0.00 0.00 0.00 0.00 0.00 0.00 0.00 0.00 0.00 0.00 0.00 0.00 0.00 0.00 0.00 0.00 0.00 0.00 0.00 0.00 0.00 0.00 0.00 0.00 0.00 0.00 0.00 0.00 0.01 0.03 0.01 0.01 0.01
0.00 0.00 0.01 0.01 0.00 0.00 0.00 0.00 0.00 0.00 0.00 0.00 0.00 0.00 0.00 0.00 0.00 0.00 0.00 0.00 0.00 0.00 0.00 0.00 0.00 0.00 0.00 0.00 0.00 0.00 0.00 0.00 0.00 0.00 0.00 0.00 0.00 0.00 0.01 0.02 0.03 0.04 0.03 0.02
0.01 0.00 0.00 0.00 0.00 0.00 0.00 0.00 0.00 0.00 0.00 0.00 0.00 0.00 0.00 0.00 0.00 0.00 0.00 0.00 0.00 0.00 0.00 0.00 0.00 0.00 0.00 0.00 0.00 0.00 0.00 0.00 0.00 0.00 0.01 0.01 0.01 0.01 0.02 0.02 0.02 0.02 0.02 0.01
0.00 0.00 0.00 0.00 0.00 0.00 0.00 0.00 0.00 0.00 0.00 0.00 0.00 0.00 0.00 0.00 0.00 0.00 0.00 0.00 0.00 0.00 0.00 0.00 0.00 0.00 0.00 0.00 0.00 0.00 0.00 0.01 0.01 0.01 0.01 0.01 0.01 0.01 0.01 0.01 0.01 0.00 0.00 0.00
0.00 0.00 0.00 0.00 0.00 0.00 0.00 0.00 0.00 0.00 0.00 0.00 0.00 0.00 0.00 0.00 0.00 0.00 0.00 0.00 0.00 0.00 0.00 0.00 0.00 0.00 0.00 0.00 0.02 0.02 0.02 0.02 0.02 0.01 0.01 0.02 0.01 0.01 0.00 0.00 0.00 0.00 0.00 0.00
0.00 0.00 0.00 0.00 0.00 0.00 0.00 0.00 0.00 0.00 0.00 0.00 0.00 0.00 0.00 0.00 0.00 0.00 0.00 0.00 0.00 0.00 0.00 0.00 0.00 0.00 0.00 0.00 0.00 0.01 0.01 0.01 0.01 0.01 0.00 0.01 0.01 0.00 0.00 0.00 0.00 0.00 0.00 0.00
0.00 0.00 0.00 0.00 0.00 0.00 0.00 0.00 0.00 0.00 0.00 0.00 0.00 0.00 0.00 0.00 0.00 0.00 0.00 0.00 0.00 0.00 0.00 0.00 0.00 0.00 0.00 0.00 0.00 0.00 0.00 0.00 0.00 0.00 0.00 0.00 0.00 0.00 0.00 0.00 0.00 0.00 0.00 0.00
0.00 0.00 0.00 0.00 0.00 0.00 0.00 0.00 0.00 0.00 0.00 0.00 0.00 0.00 0.00 0.00 0.00 0.00 0.00 0.00 0.00 0.00 0.00 0.00 0.00 0.00 0.00 0.00 0.00 0.00 0.00 0.00 0.00 0.00 0.00 0.00 0.00 0.00 0.00 0.00 0.00 0.00 0.00 0.00
0.00 0.00 0.00 0.00 0.00 0.00 0.00 0.00 0.00 0.00 0.00 0.00 0.00 0.00 0.00 0.00 0.00 0.00 0.00 0.00 0.00 0.00 0.00 0.00 0.00 0.00 0.00 0.00 0.00 0.00 0.00 0.00 0.00 0.00 0.00 0.00 0.00 0.00 0.00 0.00 0.00 0.00 0.00 0.00
0.00 0.00 0.00 0.00 0.00 0.00 0.00 0.00 0.00 0.00 0.00 0.00 0.00 0.00 0.00 0.00 0.00 0.00 0.00 0.00 0.00 0.00 0.00 0.00 0.00 0.00 0.00 0.00 0.00 0.00 0.00 0.00 0.00 0.00 0.00 0.00 0.00 0.00 0.00 0.00 0.00 0.00 0.00 0.00
0.00 0.00 0.00 0.00 0.00 0.00 0.00 0.00 0.00 0.00 0.00 0.00 0.00 0.00 0.00 0.00 0.00 0.00 0.00 0.00 0.00 0.00 0.00 0.00 0.00 0.00 0.00 0.00 0.00 0.00 0.00 0.00 0.00 0.00 0.00 0.00 0.00 0.00 0.00 0.00 0.00 0.00 0.00 0.00
0.00 0.00 0.00 0.00 0.00 0.00 0.00 0.00 0.00 0.00 0.00 0.00 0.00 0.00 0.00 0.00 0.00 0.00 0.00 0.00 0.00 0.00 0.00 0.00 0.00 0.00 0.00 0.00 0.00 0.00 0.00 0.00 0.00 0.00 0.00 0.00 0.00 0.00 0.00 0.00 0.00 0.00 0.00 0.00
0.00 0.00 0.00 0.00 0.00 0.00 0.00 0.00 0.00 0.00 0.00 0.00 0.00 0.00 0.00 0.00 0.00 0.00 0.00 0.00 0.00 0.00 0.00 0.00 0.00 0.00 0.00 0.00 0.00 0.00 0.00 0.00 0.00 0.00 0.00 0.00 0.00 0.00 0.00 0.00 0.00 0.00 0.00 0.00
MSLP
1010.38 1009.19 1008.12 1007.53 1007.29 1006.91 1006.31 1006.18 1005.80 1004.69 1004.00 1002.25 1001.39 1000.45 999.74 999.17 999.01 999.26 999.49 999.29 998.92 998.89 998.70 998.54 998.49 998.18 997.88 997.80 998.01 998.29 998.03 998.05 997.83 997.96 998.32 998.76 998.91 999.26 999.86 1000.60 1001.29 1002.02 1002.88 1003.69
1010.50 1009.49 1008.50 1007.69 1006.98 1006.80 1006.10 1005.23 1004.67 1004.00 1003.33 1002.76 1001.24 1000.99 1000.05 999.73 999.76 999.39 999.06 998.95 998.96 998.76 998.57 998.45 998.37 998.32 997.99 997.80 997.68 997.99 997.85 998.08 998.01 998.19 998.30 998.60 999.16 999.52 1000.11 1000.71 1001.35 1002.14 1003.10 1003.75
1009.95 1009.15 1008.04 1007.17 1005.85 1005.09 1004.52 1004.20 1003.70 1002.66 1002.00 1001.36 1000.35 999.82 999.36 999.17 998.98 998.70 998.86 998.73 998.35 998.22 998.41 998.30 998.26 998.27 998.03 997.76 997.51 997.72 997.76 997.84 997.94 998.38 998.69 998.88 999.08 999.75 1000.11 1000.71 1001.29 1002.08 1003.19 1004.08
1010.21 1009.51 1007.62 1005.21 1004.31 1003.34 1002.71 1002.19 1001.88 1001.69 1001.30 1000.72 999.98 999.17 998.95 998.80 998.83 998.81 998.51 998.26 997.98 997.69 997.75 998.16 998.31 998.21 998.21 997.84 997.40 997.40 997.27 997.35 997.62 997.98 998.21 998.94 999.36 999.94 1000.24 1000.64 1001.34 1002.31 1003.50 1004.42
1010.62 1008.60 1006.64 1004.92 1003.43 1002.88 1002.16 1001.25 1001.19 1000.87 1000.44 999.72 999.43 998.66 997.95 998.43 998.64 998.57 998.65 998.20 997.91 997.84 997.85 998.14 998.13 998.10 997.96 997.68 997.15 996.88 996.75 996.76 997.06 997.59 998.17 998.57 999.00 999.69 1000.35 1001.12 1001.50 1002.52 1003.61 1004.52
1010.32 1008.59 1005.90 1003.60 1002.28 1002.25 1002.10 1001.24 1000.83 1000.64 1000.15 999.73 999.56 998.75 998.02 998.06 998.01 998.24 998.28 997.99 997.79 997.96 997.74 997.74 997.57 997.64 997.50 997.42 997.15 996.43 996.37 996.43 996.68 996.97 997.70 998.25 998.87 999.60 1000.12 1001.28 1001.99 1003.00 1004.03 1004.41
1009.01 1007.73 1005.44 1003.51 1002.83 1002.79 1002.74 1001.53 1000.64 1000.73 1000.45 999.99 999.53 999.07 998.55 998.43 998.43 998.30 997.97 997.80 997.47 997.30 997.06 997.00 997.02 997.08 996.81 996.68 996.45 996.70 996.73 996.43 996.33 996.57 996.98 997.64 998.50 999.31 1000.08 1001.10 1002.19 1003.38 1004.46 1005.35
1007.79 1006.42 1004.76 1004.23 1002.75 1003.63 1003.96 1003.45 1003.06 1002.32 1001.66 1001.01 1000.33 999.63 998.99 998.13 998.25 997.83 997.37 996.92 997.07 996.73 996.12 996.06 996.42 996.52 996.25 995.87 996.04 996.18 996.20 996.25 996.17 996.25 996.70 997.35 998.11 999.03 999.77 1000.57 1001.84 1003.25 1004.42 1005.72
1007.40 1005.46 1004.11 1004.12 1004.61 1004.64 1003.95 1003.49 1003.78 1003.34 1003.10 1002.61 1001.46 1000.44 999.42 997.90 997.64 997.45 997.07 996.55 996.13 995.86 995.29 995.16 995.46 995.64 995.48 995.54 995.80 995.75 995.68 995.59 995.71 996.08 996.34 997.10 997.86 998.67 999.78 1000.44 1001.62 1002.95 1003.96 1005.25
1007.42 1005.07 1004.65 1004.55 1004.38 1004.35 1004.70 1004.64 1004.54 1003.82 1003.07 1002.69 1001.80 1000.76 999.62 998.35 997.26 997.06 996.39 995.78 995.44 995.12 994.64 994.31 994.64 994.83 994.93 995.09 995.36 995.29 995.17 995.13 995.09 995.84 996.37 996.86 997.62 998.36 999.18 999.96 1000.86 1002.04 1003.35 1004.53
1005.82 1005.02 1004.98 1004.51 1004.48 1004.75 1005.08 1004.98 1004.59 1003.83 1003.41 1002.90 1002.40 1000.64 999.86 998.35 996.99 996.36 995.96 995.37 994.68 994.22 994.04 993.65 993.92 993.92 994.15 994.36 994.58 994.73 994.79 994.80 994.85 995.77 996.44 996.91 997.67 998.25 998.44 999.10 999.37 1000.52 1002.09 1003.13
1005.33 1005.46 1005.25 1004.96 1005.17 1005.61 1005.19 1004.74 1004.75 1003.97 1002.92 1002.41 1002.31 1000.87 999.94 998.57 996.90 995.93 995.40 994.78 994.35 993.66 993.27 993.24 993.17 992.98 993.19 993.56 994.06 994.36 994.43 994.78 995.30 995.71 996.45 996.91 997.94 998.97 999.52 999.39 999.74 1000.24 1000.85 1001.90
1005.80 1005.85 1005.96 1005.93 1005.75 1005.54 1005.61 1005.28 1004.76 1004.15 1003.28 1002.15 1001.58 1001.16 999.85 998.71 996.91 995.49 995.09 994.42 993.68 992.40 992.21 992.43 992.32 992.21 992.52 992.98 993.51 993.87 993.98 994.82 995.43 995.85 996.29 997.18 997.91 998.69 999.95 1000.86 1000.93 1001.54 1002.12 1002.60
1005.66 1005.83 1005.69 1005.49 1005.39 1006.08 1005.87 1005.41 1004.67 1003.81 1003.03 1002.12 1001.20 1000.71 999.57 998.24 996.61 995.33 993.89 993.23 993.05 992.45 991.72 991.54 991.41 991.34 991.91 992.42 992.86 993.24 993.51 994.66 995.30 995.65 996.29 996.71 997.72 998.28 999.15 999.93 1001.36 1002.75 1003.57 1003.73
1005.56 1005.93 1006.00 1006.14 1006.13 1006.13 1006.03 1005.49 1004.64 1003.62 1002.57 1001.55 1000.92 999.99 999.02 997.45 996.02 994.21 993.25 992.80 992.24 991.54 990.76 990.30 990.26 990.37 991.31 991.75 992.35 992.72 993.30 994.08 995.00 995.52 996.22 996.75 997.49 998.61 999.11 1000.01 1001.16 1002.12 1003.56 1004.82
1005.79 1006.11 1006.26 1006.43 1006.54 1006.42 1006.00 1005.56 1004.77 1003.57 1002.53 1001.46 1000.35 999.11 997.70 996.28 994.66 993.10 992.06 991.63 991.47 989.96 989.39 989.55 989.39 989.57 990.61 991.63 992.05 992.72 993.40 993.88 994.91 995.58 996.29 997.19 997.74 998.66 999.53 1000.25 1001.33 1002.49 1003.57 1004.74
1006.13 1006.27 1006.45 1006.77 1006.78 1006.43 1006.07 1005.64 1005.03 1004.00 1002.54 1001.11 999.73 998.20 996.38 994.57 992.81 991.17 990.01 989.69 989.30 989.07 988.84 988.74 989.07 990.04 991.27 991.87 992.30 993.02 993.67 994.28 995.23 995.94 996.69 997.42 998.11 999.08 999.85 1000.59 1001.68 1003.11 1004.29 1005.37
1006.25 1006.37 1006.74 1007.10 1007.03 1006.69 1006.14 1005.62 1004.86 1003.90 1002.68 1001.33 999.79 997.85 995.86 993.56 990.94 988.68 988.11 987.67 988.20 988.52 988.71 988.95 990.36 991.26 991.83 992.29 992.73 993.27 994.00 994.72 995.69 996.17 996.95 998.12 998.61 999.85 1000.32 1001.27 1002.36 1003.33 1004.63 1005.96
1006.60 1006.89 1007.27 1007.43 1007.35 1007.03 1006.41 1005.71 1004.95 1004.02 1002.79 1001.27 999.68 997.87 996.04 993.94 991.50 989.35 988.48 988.61 989.15 989.95 990.89 991.13 991.67 991.98 992.65 993.30 993.64 994.23 995.07 995.86 996.54 996.97 997.55 998.23 999.05 1000.59 1001.13 1002.15 1003.33 1004.77 1005.35 1005.80
1007.11 1007.56 1007.67 1007.65 1007.42 1007.06 1006.46 1005.86 1005.15 1004.19 1003.15 1001.85 1000.29 998.58 996.90 995.47 993.97 992.67 991.79 991.99 992.39 992.49 992.35 992.40 992.88 993.41 994.04 994.35 994.76 995.53 996.40 997.42 998.29 998.17 998.68 998.63 999.98 1001.27 1001.88 1002.77 1003.76 1004.90 1005.53 1006.32
1007.39 1007.76 1007.89 1007.86 1007.60 1007.22 1006.81 1006.17 1005.53 1004.55 1003.68 1002.65 1001.50 1000.18 998.90 997.52 996.26 995.33 994.60 994.59 995.12 994.77 994.47 994.45 994.71 995.02 995.27 995.50 995.84 996.71 997.23 998.48 999.78 999.97 1000.08 1000.31 1001.51 1002.18 1003.07 1003.75 1005.02 1005.18 1005.79 1007.07
1007.41 1007.61 1007.88 1007.86 1007.61 1007.16 1006.90 1006.44 1005.91 1005.19 1004.31 1003.49 1002.82 1001.77 1000.69 999.66 998.66 997.95 997.60 997.40 997.20 996.83 996.59 996.57 996.65 996.70 996.65 996.85 997.35 998.03 998.56 999.85 1001.67 1001.30 1001.11 1002.81 1002.24 1002.56 1003.53 1005.10 1005.52 1005.98 1006.80 1007.89
1007.46 1007.57 1007.67 1007.69 1007.50 1007.15 1006.72 1006.53 1006.20 1005.69 1005.26 1004.74 1004.02 1003.29 1002.56 1001.96 1001.31 1000.57 1000.08 999.92 999.51 999.15 998.94 998.82 998.70 998.54 998.69 999.08 999.21 999.71 1000.41 1001.83 1002.49 1003.19 1003.56 1003.42 1003.11 1003.45 1005.11 1006.31 1006.55 1006.70 1007.31 1007.20
1007.43 1007.58 1007.57 1007.55 1007.43 1007.17 1006.85 1006.58 1006.42 1006.07 1005.88 1005.62 1005.18 1004.66 1003.92 1003.15 1002.61 1002.31 1002.02 1001.55 1001.10 1000.85 1000.74 1000.61 1000.25 1000.09 1000.26 1000.53 1000.53 1000.78 1001.89 1002.95 1004.02 1004.37 1004.74 1004.18 1004.09 1005.05 1006.13 1006.63 1006.98 1007.19 1007.21 1007.21
1007.23 1007.41 1007.41 1007.26 1007.23 1007.26 1007.25 1007.01 1006.63 1006.41 1006.12 1005.96 1005.86 1005.60 1005.24 1004.84 1004.50 1004.05 1003.30 1002.89 1002.51 1002.27 1002.10 1002.12 1001.97 1002.04 1002.22 1002.40 1002.71 1003.20 1003.74 1004.24 1004.49 1004.62 1004.73 1004.86 1005.27 1005.94 1006.56 1006.97 1006.94 1007.12 1007.37 1007.73
1007.07 1007.22 1007.46 1007.53 1007.48 1007.47 1007.55 1007.48 1007.24 1007.34 1007.02 1006.71 1006.70 1006.78 1006.43 1005.92 1005.43 1005.11 1004.78 1004.39 1004.05 1003.78 1003.62 1003.54 1003.41 1003.34 1003.36 1003.49 1003.71 1003.96 1004.28 1004.56 1004.79 1005.03 1005.27 1005.53 1005.99 1006.35 1006.60 1006.85 1007.10 1007.34 1007.56 1007.68
1007.18 1007.58 1007.69 1007.88 1008.00 1008.08 1008.35 1008.33 1008.17 1008.29 1008.35 1008.03 1007.76 1007.72 1007.49 1007.21 1006.90 1006.40 1006.00 1005.63 1005.40 1005.16 1004.92 1004.76 1004.72 1004.63 1004.55 1004.62 1004.72 1004.89 1005.00 1005.25 1005.48 1005.68 1005.98 1006.21 1006.46 1006.66 1006.80 1007.06 1007.28 1007.44 1007.49 1007.67
Thickness
5486 5497 5506 5507 5506 5513 5518 5519 5510 5535 5531 5571 5589 5604 5618 5628 5630 5633 5638 5648 5662 5668 5677 5686 5692 5702 5712 5719 5724 5730 5737 5740 5746 5750 5751 5748 5749 5749 5745 5742 5739 5735 5730 5725
5465 5489 5494 5492 5503 5501 5512 5525 5528 5534 5534 5562 5585 5585 5600 5607 5606 5615 5628 5636 5642 5653 5662 5669 5674 5681 5690 5701 5710 5715 5722 5724 5730 5734 5737 5736 5733 5732 5729 5726 5724 5721 5714 5710
5469 5485 5487 5477 5502 5511 5517 5523 5525 5525 5547 5568 5580 5582 5590 5595 5597 5604 5611 5618 5629 5637 5642 5650 5660 5667 5675 5684 5695 5701 5706 5712 5716 5716 5717 5718 5720 5717 5717 5714 5713 5709 5702 5695
5456 5465 5452 5507 5518 5528 5528 5535 5539 5536 5543 5550 5562 5580 5583 5589 5589 5585 5591 5601 5613 5623 5626 5632 5639 5649 5657 5668 5679 5685 5695 5701 5703 5703 5705 5703 5704 5703 5703 5703 5700 5695 5686 5680
5433 5463 5480 5495 5519 5516 5516 5525 5532 5529 5544 5555 5559 5569 5574 5571 5571 5571 5572 5584 5592 5595 5605 5612 5620 5630 5640 5651 5664 5675 5683 5689 5691 5691 5690 5690 5691 5690 5688 5686 5686 5679 5672 5666
5433 5432 5456 5503 5524 5515 5509 5497 5537 5532 5528 5530 5538 5529 5547 5562 5561 5561 5563 5571 5575 5578 5588 5596 5605 5615 5627 5636 5648 5663 5668 5672 5677 5682 5679 5679 5678 5675 5675 5670 5666 5659 5653 5651
5439 5436 5466 5496 5499 5495 5477 5506 5522 5513 5509 5515 5517 5526 5539 5549 5545 5550 5554 5557 5565 5570 5578 5585 5591 5600 5613 5627 5638 5639 5646 5654 5662 5668 5670 5669 5667 5665 5663 5655 5647 5639 5632 5626
5440 5439 5447 5473 5487 5471 5466 5467 5477 5481 5489 5494 5503 5513 5524 5540 5534 5542 5547 5551 5553 5558 5573 5579 5580 5585 5597 5613 5617 5626 5632 5638 5647 5652 5655 5654 5655 5654 5650 5647 5635 5624 5616 5607
5440 5460 5471 5465 5453 5455 5461 5467 5457 5462 5464 5468 5480 5493 5507 5526 5530 5533 5535 5542 5549 5553 5565 5573 5570 5574 5587 5596 5598 5609 5617 5625 5632 5637 5642 5640 5640 5640 5634 5632 5623 5613 5607 5599
5420 5455 5455 5447 5449 5447 5441 5440 5438 5450 5455 5457 5464 5477 5491 5507 5518 5518 5528 5534 5540 5545 5553 5563 5562 5566 5571 5577 5582 5592 5602 5611 5619 5621 5625 5626 5625 5625 5623 5621 5614 5605 5596 5588
5429 5440 5434 5437 5438 5433 5425 5425 5427 5439 5440 5441 5443 5464 5474 5489 5504 5510 5513 5520 5531 5538 5541 5550 5555 5560 5563 5565 5572 5579 5586 5595 5604 5602 5603 5607 5607 5609 5614 5613 5612 5604 5592 5584
5411 5415 5412 5419 5419 5411 5413 5417 5414 5422 5430 5434 5429 5444 5455 5469 5490 5497 5501 5507 5509 5521 5531 5538 5545 5553 5558 5558 5560 5564 5572 5579 5578 5580 5583 5586 5584 5580 5581 5589 5589 5587 5585 5579
5393 5394 5390 5395 5401 5400 5395 5398 5402 5407 5414 5421 5425 5424 5438 5448 5469 5483 5485 5493 5500 5517 5522 5523 5531 5540 5544 5546 5549 5554 5561 5558 5556 5561 5563 5562 5564 5566 5559 5555 5558 5557 5555 5553
5388 5385 5388 5395 5394 5383 5382 5386 5392 5399 5404 5409 5413 5412 5420 5431 5448 5460 5478 5487 5487 5493 5503 5510 5519 5528 5530 5532 5538 5543 5550 5538 5542 5546 5546 5550 5549 5550 5549 5550 5542 5533 5527 5528
5381 5378 5378 5377 5377 5374 5371 5375 5382 5389 5395 5398 5398 5400 5405 5416 5426 5443 5457 5462 5470 5480 5494 5506 5511 5518 5517 5520 5524 5530 5533 5533 5532 5533 5532 5533 5533 5530 5533 5531 5527 5522 5512 5504
5375 5370 5368 5363 5362 5364 5368 5366 5370 5376 5381 5383 5385 5390 5392 5398 5409 5424 5436 5444 5448 5476 5493 5493 5503 5510 5507 5503 5507 5509 5511 5514 5516 5518 5517 5515 5514 5511 5510 5510 5506 5501 5498 5490
5362 5359 5360 5355 5357 5357 5357 5356 5358 5362 5370 5375 5377 5380 5388 5397 5408 5419 5429 5435 5447 5463 5476 5485 5492 5490 5484 5485 5488 5490 5491 5495 5498 5501 5501 5500 5499 5495 5494 5491 5486 5479 5473 5468
5361 5361 5355 5347 5345 5345 5348 5350 5352 5354 5358 5363 5367 5373 5382 5395 5411 5426 5431 5439 5440 5442 5456 5462 5456 5458 5464 5469 5473 5476 5478 5480 5482 5486 5485 5482 5483 5478 5477 5473 5467 5464 5456 5445
5351 5348 5341 5336 5335 5336 5341 5344 5346 5348 5354 5360 5365 5369 5376 5387 5400 5413 5420 5422 5422 5419 5414 5420 5425 5438 5445 5448 5455 5457 5457 5457 5461 5465 5466 5468 5469 5458 5457 5451 5444 5434 5428 5431
5338 5331 5329 5328 5329 5330 5334 5338 5341 5345 5349 5354 5359 5365 5369 5375 5382 5389 5395 5393 5391 5393 5397 5404 5410 5419 5425 5430 5434 5434 5431 5431 5434 5444 5444 5453 5448 5442 5439 5434 5430 5416 5419 5410
5330 5323 5320 5318 5319 5322 5324 5328 5333 5340 5344 5347 5350 5355 5359 5365 5373 5376 5380 5379 5373 5375 5382 5389 5397 5405 5412 5417 5417 5412 5413 5406 5410 5415 5418 5413 5415 5423 5417 5416 5406 5406 5399 5390
5325 5321 5314 5312 5313 5318 5319 5322 5325 5330 5337 5340 5341 5345 5350 5352 5356 5362 5360 5362 5363 5368 5374 5380 5386 5391 5397 5398 5398 5397 5396 5388 5381 5394 5400 5391 5403 5404 5397 5387 5386 5384 5377 5368
5320 5317 5313 5310 5310 5313 5318 5317 5317 5321 5323 5327 5331 5335 5339 5340 5340 5344 5347 5344 5348 5351 5357 5362 5366 5372 5376 5378 5381 5381 5379 5371 5370 5369 5372 5379 5384 5386 5373 5362 5364 5366 5362 5367
5316 5312 5311 5308 5307 5308 5310 5313 5312 5314 5314 5316 5319 5322 5328 5333 5337 5336 5336 5339 5342 5344 5346 5349 5355 5359 5362 5365 5371 5374 5368 5360 5352 5354 5355 5365 5370 5363 5356 5354 5354 5355 5357 5358
5314 5310 5309 5310 5307 5303 5302 5304 5309 5308 5310 5311 5311 5312 5314 5318 5320 5324 5331 5333 5336 5340 5343 5344 5347 5348 5348 5350 5350 5348 5347 5345 5347 5350 5353 5354 5353 5349 5345 5342 5345 5345 5344 5341
5310 5308 5305 5303 5302 5301 5298 5298 5300 5297 5300 5301 5299 5298 5301 5306 5310 5313 5315 5319 5323 5327 5329 5331 5333 5336 5338 5339 5339 5340 5339 5339 5339 5339 5339 5339 5337 5336 5336 5335 5335 5333 5331 5329
5301 5296 5297 5294 5293 5292 5289 5287 5288 5285 5284 5288 5289 5288 5290 5293 5295 5300 5303 5306 5308 5310 5312 5314 5316 5318 5321 5321 5323 5324 5325 5325 5324 5324 5323 5324 5324 5325 5326 5324 5323 5321 5321 5320